Airfield :
LOGIN :

Register | Disclaimer

   EN    FR    IT 

 










Legend :    VFR   Marginal VFR   IFR   Intensive IFR   Very Intensive IFR
Visi :
Ceiling :
>= 8 km
>= 3000ft
5 to 8 km
1000 to 3000 ft
1500m to 5 km
500 to 1000 ft
800 to 1500m
200 to 500 ft
< 800m
< 200 ft
Symbols :   Thunderstorms  Fog  Heavy snow  Heavy precipitations  Wind > 20 kt
SIGMETs :     Misc.  Thunderstorms  Icing  Turbulence  Mountain Waves  Volcanic Ashes







- Airport Elevation : 17 ft
- IATA code : MPL
- Download approach charts


LFMT - Montpellier Méditerranée

CURRENT METAR :
  • 280030Z AUTO 02003KT CAVOK 17/11 Q1020 TEMPO 2000 BR

EXPIRED METARs :
  • 280000Z AUTO 01004KT CAVOK 17/11 Q1020 TEMPO 2000 BR
  • 272330Z AUTO 03004KT CAVOK 18/12 Q1020 TEMPO 2000 BR
  • 272300Z AUTO 01004KT CAVOK 18/12 Q1020 NOSIG
  • 272230Z AUTO 02003KT CAVOK 19/12 Q1020 NOSIG

TAF TAF LFMT
Valid from the 27 at 21:00 until the 28 at 21:00 UTC


272000Z 2721/2821 VRB03KT CAVOK
PROB30
TEMPO 2801/2807 2000 BR
BECMG 2810/2812 18010KT
BECMG 2818/2820 VRB03KT
ATIS : +33 4 67 13 11 70
No reported NOTAMs for that airfield.



MET'MAP, your aeronautical weather chart ! - Copyright ORBIFLY December 2007 - Disclaimer

ORBIFLY MET'MAP TEAM :

Programming & Development : Alexandra Zaïnal
Concept & Development : Baudouin d'Aumeries
Co-Development & Prog : Marc-Olivier Méhu
Technical & hardware support : Manuel Goepfert

Contact : metmap@orbifly.com




SOURCES & CREDITS :

   NOAA